Time,TemperatureF,DewpointF,PressureIn,WindDirection,WindDirectionDegrees,WindSpeedMPH,WindSpeedGustMPH,Humidity,HourlyPrecipIn,Conditions,Clouds,dailyrainin,SoftwareType,DateUTC
2013-05-30 00:03:00,68.0,66.0,30.04,West,270,5.0,-999.0,93,-99.99,,,-99.99,,2013-05-30 04:03:00,
2013-05-30 00:13:00,70.0,66.0,30.04,West,260,5.0,-999.0,88,-99.99,,,-99.99,,2013-05-30 04:13:00,
2013-05-30 00:23:00,70.0,66.0,30.04,WSW,250,3.0,-999.0,88,-99.99,,,-99.99,,2013-05-30 04:23:00,
2013-05-30 00:33:00,70.0,66.0,30.04,West,260,5.0,-999.0,88,-99.99,,,-99.99,,2013-05-30 04:33:00,
2013-05-30 00:42:00,70.0,66.0,30.05,West,270,3.0,-999.0,88,-99.99,,,-99.99,,2013-05-30 04:42:00,
2013-05-30 00:53:00,70.0,66.0,30.04,West,260,3.0,-999.0,88,-99.99,,,-99.99,,2013-05-30 04:53:00,
2013-05-30 01:02:00,70.0,66.0,30.04,West,260,3.0,-999.0,88,-99.99,,,-99.99,,2013-05-30 05:02:00,
2013-05-30 01:12:00,70.0,66.0,30.05,West,260,5.0,-999.0,88,-99.99,,,-99.99,,2013-05-30 05:12:00,
2013-05-30 01:22:00,70.0,66.0,30.05,West,260,3.0,-999.0,88,-99.99,,,-99.99,,2013-05-30 05:22:00,
2013-05-30 01:32:00,70.0,66.0,30.06,West,270,5.0,-999.0,88,-99.99,,,-99.99,,2013-05-30 05:32:00,
2013-05-30 01:42:00,70.0,66.0,30.06,West,260,3.0,-999.0,88,-99.99,,,-99.99,,2013-05-30 05:42:00,
2013-05-30 01:52:00,70.0,66.0,30.06,North,0,0.0,-999.0,88,-99.99,,,-99.99,,2013-05-30 05:52:00,
2013-05-30 02:01:00,70.0,66.0,30.06,North,0,0.0,-999.0,88,-99.99,,,-99.99,,2013-05-30 06:01:00,
2013-05-30 02:12:00,70.0,66.0,30.06,North,0,0.0,-999.0,88,-99.99,,,-99.99,,2013-05-30 06:12:00,
2013-05-30 02:22:00,70.0,66.0,30.06,North,0,0.0,-999.0,88,-99.99,,,-99.99,,2013-05-30 06:22:00,
2013-05-30 02:32:00,70.0,68.0,30.06,North,0,0.0,-999.0,94,-99.99,,,-99.99,,2013-05-30 06:32:00,
2013-05-30 02:42:00,70.0,66.0,30.06,North,0,0.0,-999.0,88,-99.99,,,-99.99,,2013-05-30 06:42:00,
2013-05-30 02:52:00,70.0,68.0,30.06,West,260,3.0,-999.0,94,-99.99,,,-99.99,,2013-05-30 06:52:00,
2013-05-30 03:01:00,70.0,68.0,30.06,West,260,3.0,-999.0,94,-99.99,,,-99.99,,2013-05-30 07:01:00,
2013-05-30 03:12:00,68.0,66.0,30.06,North,0,0.0,-999.0,93,-99.99,,,-99.99,,2013-05-30 07:12:00,
2013-05-30 03:22:00,63.0,63.0,30.06,North,0,0.0,-999.0,100,-99.99,,,-99.99,,2013-05-30 07:22:00,
2013-05-30 03:32:00,63.0,63.0,30.06,North,0,0.0,-999.0,100,-99.99,,,-99.99,,2013-05-30 07:32:00,
2013-05-30 03:42:00,63.0,63.0,30.06,North,0,0.0,-999.0,100,-99.99,,,-99.99,,2013-05-30 07:42:00,
2013-05-30 03:52:00,63.0,63.0,30.06,North,0,0.0,-999.0,100,-99.99,,,-99.99,,2013-05-30 07:52:00,
2013-05-30 04:02:00,63.0,63.0,30.06,North,0,0.0,-999.0,100,-99.99,,,-99.99,,2013-05-30 08:02:00,
2013-05-30 04:11:00,63.0,63.0,30.07,North,0,0.0,-999.0,100,-99.99,,,-99.99,,2013-05-30 08:11:00,
2013-05-30 04:22:00,61.0,61.0,30.07,North,0,0.0,-999.0,100,-99.99,,,-99.99,,2013-05-30 08:22:00,
2013-05-30 04:32:00,61.0,61.0,30.07,North,0,0.0,-999.0,100,-99.99,,,-99.99,,2013-05-30 08:32:00,
2013-05-30 04:42:00,61.0,61.0,30.08,North,0,0.0,-999.0,100,-99.99,,,-99.99,,2013-05-30 08:42:00,
2013-05-30 04:52:00,63.0,63.0,30.08,North,0,0.0,-999.0,100,-99.99,,,-99.99,,2013-05-30 08:52:00,
2013-05-30 05:01:00,63.0,63.0,30.08,North,0,0.0,-999.0,100,-99.99,,,-99.99,,2013-05-30 09:01:00,
2013-05-30 05:11:00,61.0,61.0,30.08,North,0,0.0,-999.0,100,-99.99,,,-99.99,,2013-05-30 09:11:00,
2013-05-30 05:21:00,61.0,61.0,30.08,North,0,0.0,-999.0,100,-99.99,,,-99.99,,2013-05-30 09:21:00,
2013-05-30 05:33:00,61.0,61.0,30.08,North,0,0.0,-999.0,100,-99.99,,,-99.99,,2013-05-30 09:33:00,
2013-05-30 05:42:00,63.0,63.0,30.08,North,0,0.0,-999.0,100,-99.99,,,-99.99,,2013-05-30 09:42:00,
2013-05-30 05:53:00,63.0,63.0,30.08,West,260,3.0,-999.0,100,-99.99,,,-99.99,,2013-05-30 09:53:00,
2013-05-30 06:03:00,63.0,63.0,30.08,West,260,3.0,-999.0,100,-99.99,,,-99.99,,2013-05-30 10:03:00,
2013-05-30 06:13:00,64.0,64.0,30.08,West,260,3.0,-999.0,100,-99.99,,,-99.99,,2013-05-30 10:13:00,
2013-05-30 06:23:00,64.0,64.0,30.08,North,0,0.0,-999.0,100,-99.99,,,-99.99,,2013-05-30 10:23:00,
2013-05-30 06:32:00,64.0,64.0,30.09,North,0,0.0,-999.0,100,-99.99,,,-99.99,,2013-05-30 10:32:00,
2013-05-30 06:42:00,63.0,63.0,30.09,North,0,0.0,-999.0,100,-99.99,,,-99.99,,2013-05-30 10:42:00,
2013-05-30 06:52:00,64.0,64.0,30.10,North,0,0.0,-999.0,100,-99.99,,,-99.99,,2013-05-30 10:52:00,
2013-05-30 07:03:00,64.0,64.0,30.10,North,0,0.0,-999.0,100,-99.99,,,-99.99,,2013-05-30 11:03:00,
2013-05-30 07:12:00,70.0,70.0,30.10,North,0,0.0,-999.0,100,-99.99,,,-99.99,,2013-05-30 11:12:00,
2013-05-30 07:22:00,70.0,70.0,30.11,North,0,0.0,-999.0,100,-99.99,,,-99.99,,2013-05-30 11:22:00,
2013-05-30 07:32:00,70.0,70.0,30.11,North,0,0.0,-999.0,100,-99.99,,,-99.99,,2013-05-30 11:32:00,
2013-05-30 07:42:00,70.0,70.0,30.11,North,0,0.0,-999.0,100,-99.99,,,-99.99,,2013-05-30 11:42:00,
2013-05-30 07:52:00,72.0,72.0,30.11,North,0,0.0,-999.0,100,-99.99,,,-99.99,,2013-05-30 11:52:00,
2013-05-30 08:01:00,72.0,72.0,30.11,North,0,0.0,-999.0,100,-99.99,,,-99.99,,2013-05-30 12:01:00,
2013-05-30 08:11:00,73.0,72.0,30.11,North,0,0.0,-999.0,94,-99.99,,,-99.99,,2013-05-30 12:11:00,
2013-05-30 08:22:00,73.0,68.0,30.11,North,0,0.0,-999.0,83,-99.99,,,-99.99,,2013-05-30 12:22:00,
2013-05-30 08:32:00,73.0,68.0,30.11,West,270,5.0,-999.0,83,-99.99,,,-99.99,,2013-05-30 12:32:00,
2013-05-30 08:42:00,75.0,70.0,30.11,West,270,7.0,-999.0,83,-99.99,,,-99.99,,2013-05-30 12:42:00,
2013-05-30 08:52:00,77.0,70.0,30.11,West,280,6.0,-999.0,78,-99.99,,,-99.99,,2013-05-30 12:52:00,
2013-05-30 09:01:00,77.0,70.0,30.11,West,280,6.0,-999.0,78,-99.99,,,-99.99,,2013-05-30 13:01:00,
2013-05-30 09:11:00,77.0,70.0,30.12,West,270,8.0,-999.0,78,-99.99,,,-99.99,,2013-05-30 13:11:00,
2013-05-30 09:22:00,77.0,70.0,30.12,West,280,8.0,-999.0,78,-99.99,,,-99.99,,2013-05-30 13:22:00,
2013-05-30 09:32:00,79.0,72.0,30.12,West,270,9.0,-999.0,78,-99.99,,,-99.99,,2013-05-30 13:32:00,
2013-05-30 09:42:00,79.0,72.0,30.12,West,280,9.0,-999.0,78,-99.99,,,-99.99,,2013-05-30 13:42:00,
2013-05-30 09:52:00,79.0,72.0,30.13,WNW,290,7.0,-999.0,78,-99.99,,,-99.99,,2013-05-30 13:52:00,
2013-05-30 10:01:00,79.0,72.0,30.13,WNW,290,7.0,-999.0,78,-99.99,,,-99.99,,2013-05-30 14:01:00,
2013-05-30 10:11:00,79.0,70.0,30.13,West,270,9.0,-999.0,73,-99.99,,,-99.99,,2013-05-30 14:11:00,
2013-05-30 10:22:00,81.0,72.0,30.13,WNW,290,9.0,-999.0,74,-99.99,,,-99.99,,2013-05-30 14:22:00,
2013-05-30 10:32:00,81.0,70.0,30.13,WNW,290,8.0,-999.0,69,-99.99,,,-99.99,,2013-05-30 14:32:00,
2013-05-30 10:42:00,81.0,70.0,30.13,WNW,290,7.0,-999.0,69,-99.99,,,-99.99,,2013-05-30 14:42:00,
2013-05-30 10:52:00,81.0,72.0,30.14,West,280,8.0,-999.0,74,-99.99,,,-99.99,,2013-05-30 14:52:00,
2013-05-30 11:01:00,81.0,72.0,30.14,West,280,8.0,-999.0,74,-99.99,,,-99.99,,2013-05-30 15:01:00,
2013-05-30 11:11:00,82.0,72.0,30.13,WNW,300,8.0,-999.0,69,-99.99,,,-99.99,,2013-05-30 15:11:00,
2013-05-30 11:22:00,82.0,72.0,30.13,WNW,290,12.0,-999.0,69,-99.99,,,-99.99,,2013-05-30 15:22:00,
2013-05-30 11:33:00,82.0,72.0,30.13,NW,320,8.0,-999.0,69,-99.99,,,-99.99,,2013-05-30 15:33:00,
2013-05-30 11:42:00,82.0,72.0,30.13,WNW,300,10.0,-999.0,69,-99.99,,,-99.99,,2013-05-30 15:42:00,
2013-05-30 11:52:00,82.0,72.0,30.13,NW,310,7.0,-999.0,69,-99.99,,,-99.99,,2013-05-30 15:52:00,
2013-05-30 12:03:00,82.0,72.0,30.13,NW,310,7.0,-999.0,69,-99.99,,,-99.99,,2013-05-30 16:03:00,
2013-05-30 12:12:00,82.0,72.0,30.13,WNW,300,7.0,-999.0,69,-99.99,,,-99.99,,2013-05-30 16:12:00,
2013-05-30 12:23:00,82.0,72.0,30.13,NW,310,7.0,-999.0,69,-99.99,,,-99.99,,2013-05-30 16:23:00,
2013-05-30 12:33:00,81.0,70.0,30.13,NW,310,7.0,-999.0,69,-99.99,,,-99.99,,2013-05-30 16:33:00,
2013-05-30 12:42:00,81.0,70.0,30.13,WNW,290,7.0,-999.0,69,-99.99,,,-99.99,,2013-05-30 16:42:00,
2013-05-30 12:52:00,82.0,70.0,30.13,WNW,300,8.0,-999.0,65,-99.99,,,-99.99,,2013-05-30 16:52:00,
2013-05-30 13:02:00,82.0,70.0,30.13,WNW,300,8.0,-999.0,65,-99.99,,,-99.99,,2013-05-30 17:02:00,
2013-05-30 13:12:00,86.0,72.0,30.13,WNW,290,10.0,-999.0,62,-99.99,,,-99.99,,2013-05-30 17:12:00,
2013-05-30 13:22:00,86.0,72.0,30.13,West,280,10.0,-999.0,62,-99.99,,,-99.99,,2013-05-30 17:22:00,
2013-05-30 13:32:00,86.0,70.0,30.13,NW,310,10.0,-999.0,58,-99.99,,,-99.99,,2013-05-30 17:32:00,
2013-05-30 13:42:00,84.0,70.0,30.13,NW,310,8.0,16.0,62,-99.99,,,-99.99,,2013-05-30 17:42:00,
2013-05-30 13:52:00,84.0,70.0,30.13,NW,310,9.0,-999.0,62,-99.99,,,-99.99,,2013-05-30 17:52:00,
2013-05-30 14:02:00,84.0,70.0,30.13,NW,310,9.0,-999.0,62,-99.99,,,-99.99,,2013-05-30 18:02:00,
2013-05-30 14:11:00,88.0,70.0,30.13,WNW,290,8.0,17.0,55,-99.99,,,-99.99,,2013-05-30 18:11:00,
2013-05-30 14:22:00,90.0,72.0,30.12,WNW,300,9.0,17.0,55,-99.99,,,-99.99,,2013-05-30 18:22:00,
2013-05-30 14:32:00,90.0,72.0,30.12,West,280,12.0,18.0,55,-99.99,,,-99.99,,2013-05-30 18:32:00,
2013-05-30 14:42:00,90.0,72.0,30.12,West,280,13.0,17.0,55,-99.99,,,-99.99,,2013-05-30 18:42:00,
2013-05-30 14:51:00,90.0,70.0,30.12,NW,310,5.0,-999.0,52,-99.99,,,-99.99,,2013-05-30 18:51:00,
2013-05-30 15:02:00,90.0,70.0,30.12,NW,310,5.0,-999.0,52,-99.99,,,-99.99,,2013-05-30 19:02:00,
2013-05-30 15:12:00,90.0,70.0,30.11,WNW,290,8.0,-999.0,52,-99.99,,,-99.99,,2013-05-30 19:12:00,
2013-05-30 15:23:00,90.0,72.0,30.11,West,280,13.0,17.0,55,-99.99,,,-99.99,,2013-05-30 19:23:00,
2013-05-30 15:32:00,90.0,70.0,30.11,West,270,7.0,-999.0,52,-99.99,,,-99.99,,2013-05-30 19:32:00,
2013-05-30 15:42:00,90.0,70.0,30.11,West,280,7.0,-999.0,52,-99.99,,,-99.99,,2013-05-30 19:42:00,
2013-05-30 15:52:00,90.0,70.0,30.11,WNW,300,9.0,-999.0,52,-99.99,,,-99.99,,2013-05-30 19:52:00,
2013-05-30 16:01:00,90.0,70.0,30.11,WNW,300,9.0,-999.0,52,-99.99,,,-99.99,,2013-05-30 20:01:00,
2013-05-30 16:11:00,90.0,70.0,30.11,NW,310,7.0,-999.0,52,-99.99,,,-99.99,,2013-05-30 20:11:00,
2013-05-30 16:33:00,-999.0,-99.9,30.10,NW,310,7.0,-999.0,-999,-99.99,,,-99.99,,2013-05-30 20:33:00,
2013-05-30 16:52:00,-999.0,-99.9,30.10,NW,310,6.0,-999.0,-999,-99.99,,,-99.99,,2013-05-30 20:52:00,
2013-05-30 17:01:00,-999.0,-99.9,30.10,NW,310,6.0,-999.0,-999,-99.99,,,-99.99,,2013-05-30 21:01:00,
2013-05-30 17:53:00,-999.0,-99.9,30.09,West,270,7.0,-999.0,-999,-99.99,,,-99.99,,2013-05-30 21:53:00,
2013-05-30 18:03:00,-999.0,-99.9,30.09,West,270,7.0,-999.0,-999,-99.99,,,-99.99,,2013-05-30 22:03:00,
2013-05-30 18:12:00,-999.0,-99.9,30.08,WNW,290,7.0,-999.0,-999,-99.99,,,-99.99,,2013-05-30 22:12:00,
2013-05-30 18:23:00,-999.0,-99.9,30.08,West,270,8.0,-999.0,-999,-99.99,,,-99.99,,2013-05-30 22:23:00,
2013-05-30 18:52:00,-999.0,-99.9,30.08,West,260,8.0,-999.0,-999,-99.99,,,-99.99,,2013-05-30 22:52:00,
2013-05-30 19:02:00,-999.0,-99.9,30.08,West,260,8.0,-999.0,-999,-99.99,,,-99.99,,2013-05-30 23:02:00,
2013-05-30 19:12:00,-999.0,-99.9,30.08,West,260,7.0,-999.0,-999,-99.99,,,-99.99,,2013-05-30 23:12:00,
2013-05-30 19:32:00,-999.0,-99.9,30.08,West,270,3.0,-999.0,-999,-99.99,,,-99.99,,2013-05-30 23:32:00,
2013-05-30 20:22:00,-999.0,-99.9,30.08,North,0,0.0,-999.0,-999,-99.99,,,-99.99,,2013-05-31 00:22:00,
2013-05-30 20:42:00,-999.0,-99.9,30.08,North,0,0.0,-999.0,-999,-99.99,,,-99.99,,2013-05-31 00:42:00,
2013-05-30 20:52:00,73.0,68.0,30.08,North,0,0.0,-999.0,83,-99.99,,,-99.99,,2013-05-31 00:52:00,
2013-05-30 21:01:00,73.0,68.0,30.08,North,0,0.0,-999.0,83,-99.99,,,-99.99,,2013-05-31 01:01:00,
2013-05-30 21:12:00,-999.0,-99.9,30.09,North,0,0.0,-999.0,-999,-99.99,,,-99.99,,2013-05-31 01:12:00,
2013-05-30 21:22:00,-999.0,-99.9,30.09,North,0,0.0,-999.0,-999,-99.99,,,-99.99,,2013-05-31 01:22:00,
2013-05-30 21:42:00,-999.0,-99.9,30.09,North,0,0.0,-999.0,-999,-99.99,,,-99.99,,2013-05-31 01:42:00,
2013-05-30 21:52:00,72.0,68.0,30.09,North,0,0.0,-999.0,88,-99.99,,,-99.99,,2013-05-31 01:52:00,
2013-05-30 22:02:00,72.0,68.0,30.09,North,0,0.0,-999.0,88,-99.99,,,-99.99,,2013-05-31 02:02:00,
2013-05-30 22:11:00,70.0,66.0,30.09,North,0,0.0,-999.0,88,-99.99,,,-99.99,,2013-05-31 02:11:00,
2013-05-30 22:22:00,70.0,64.0,30.09,North,0,0.0,-999.0,82,-99.99,,,-99.99,,2013-05-31 02:22:00,
2013-05-30 22:32:00,70.0,64.0,30.10,North,0,0.0,-999.0,82,-99.99,,,-99.99,,2013-05-31 02:32:00,
2013-05-30 22:42:00,70.0,66.0,30.10,North,0,0.0,-999.0,88,-99.99,,,-99.99,,2013-05-31 02:42:00,
2013-05-30 22:51:00,70.0,66.0,30.10,North,0,0.0,-999.0,88,-99.99,,,-99.99,,2013-05-31 02:51:00,
2013-05-30 23:01:00,70.0,66.0,30.10,North,0,0.0,-999.0,88,-99.99,,,-99.99,,2013-05-31 03:01:00,
2013-05-30 23:11:00,70.0,66.0,30.10,North,0,0.0,-999.0,88,-99.99,,,-99.99,,2013-05-31 03:11:00,
2013-05-30 23:21:00,66.0,64.0,30.10,North,0,0.0,-999.0,93,-99.99,,,-99.99,,2013-05-31 03:21:00,
2013-05-30 23:33:00,66.0,64.0,30.09,North,0,0.0,-999.0,93,-99.99,,,-99.99,,2013-05-31 03:33:00,
2013-05-30 23:43:00,66.0,66.0,30.09,North,0,0.0,-999.0,100,-99.99,,,-99.99,,2013-05-31 03:43:00,
2013-05-30 23:53:00,66.0,66.0,30.09,North,0,0.0,-999.0,100,-99.99,,,-99.99,,2013-05-31 03:53:00,